timestamp,wind_dir_avg,wind_spd_max_dir,wind_spd_avg,wind_spd_gust,battery_voltage,lat,long
2019-01-12 00:00:00+00:00,257.0,253.0,11.21,12.49,,47.59359,-54.27349
2019-01-12 00:10:00+00:00,245.0,240.0,11.17,12.99,,47.59359,-54.27349
2019-01-12 00:20:00+00:00,246.0,244.0,10.49,11.85,,47.59359,-54.27349
2019-01-12 00:30:00+00:00,243.0,236.0,10.2,12.18,,47.59359,-54.27349
2019-01-12 00:40:00+00:00,245.0,253.0,9.67,11.77,,47.59359,-54.27349
2019-01-12 00:50:00+00:00,243.0,246.0,11.12,12.75,,47.59359,-54.27349
2019-01-12 01:00:00+00:00,249.0,244.0,9.62,10.68,,47.59359,-54.27349
2019-01-12 01:10:00+00:00,241.0,244.0,10.78,12.74,,47.59359,-54.27349
2019-01-12 01:20:00+00:00,248.0,250.0,10.97,12.93,,47.59359,-54.27349
2019-01-12 01:30:00+00:00,253.0,254.0,9.62,11.55,,47.59359,-54.27349
2019-01-12 01:40:00+00:00,250.0,253.0,10.74,11.61,,47.59359,-54.27349
2019-01-12 01:50:00+00:00,245.0,244.0,9.44,11.45,,47.59359,-54.27349
2019-01-12 02:00:00+00:00,243.0,250.0,9.14,10.87,,47.59359,-54.27349
2019-01-12 02:10:00+00:00,245.0,255.0,8.67,10.19,,47.59359,-54.27349
2019-01-12 02:20:00+00:00,247.0,247.0,8.43,9.61,,47.59359,-54.27349
2019-01-12 02:30:00+00:00,243.0,250.0,8.55,10.81,,47.59359,-54.27349
2019-01-12 02:40:00+00:00,240.0,245.0,8.77,9.87,,47.59359,-54.27349
2019-01-12 02:50:00+00:00,242.0,251.0,7.66,8.99,,47.59359,-54.27349
2019-01-12 03:00:00+00:00,246.0,243.0,8.72,9.62,,47.59359,-54.27349
2019-01-12 03:10:00+00:00,246.0,250.0,8.66,9.9,,47.59359,-54.27349
2019-01-12 03:20:00+00:00,244.0,249.0,7.32,9.45,,47.59359,-54.27349
2019-01-12 03:30:00+00:00,237.0,236.0,7.82,9.57,,47.59359,-54.27349
2019-01-12 03:40:00+00:00,245.0,250.0,7.29,8.49,,47.59359,-54.27349
2019-01-12 03:50:00+00:00,238.0,240.0,7.35,8.45,,47.59359,-54.27349
2019-01-12 04:00:00+00:00,233.0,232.0,9.3,10.6,,47.59359,-54.27349
2019-01-12 04:10:00+00:00,236.0,237.0,8.94,10.39,,47.59359,-54.27349
2019-01-12 04:20:00+00:00,234.0,240.0,9.93,11.57,,47.59359,-54.27349
2019-01-12 04:30:00+00:00,241.0,240.0,9.21,10.7,,47.59359,-54.27349
2019-01-12 04:40:00+00:00,242.0,240.0,8.9,10.65,,47.59359,-54.27349
2019-01-12 04:50:00+00:00,239.0,237.0,10.04,11.34,,47.59359,-54.27349
2019-01-12 05:00:00+00:00,238.0,239.0,9.57,10.95,,47.59359,-54.27349
2019-01-12 05:10:00+00:00,245.0,247.0,9.15,10.1,,47.59359,-54.27349
2019-01-12 05:20:00+00:00,236.0,238.0,8.05,10.18,,47.59359,-54.27349
2019-01-12 05:30:00+00:00,242.0,237.0,9.74,11.42,,47.59359,-54.27349
2019-01-12 05:40:00+00:00,231.0,236.0,8.7,10.42,,47.59359,-54.27349
2019-01-12 05:50:00+00:00,230.0,230.0,9.39,10.52,,47.59359,-54.27349
2019-01-12 06:00:00+00:00,239.0,238.0,10.43,12.13,,47.59359,-54.27349
2019-01-12 06:10:00+00:00,238.0,239.0,12.25,13.95,,47.59359,-54.27349
2019-01-12 06:20:00+00:00,235.0,235.0,9.98,11.49,,47.59359,-54.27349
2019-01-12 06:30:00+00:00,236.0,240.0,10.61,12.51,,47.59359,-54.27349
2019-01-12 06:40:00+00:00,226.0,227.0,9.76,11.41,,47.59359,-54.27349
2019-01-12 06:50:00+00:00,225.0,222.0,9.81,12.13,,47.59359,-54.27349
2019-01-12 07:00:00+00:00,228.0,226.0,10.78,11.87,,47.59359,-54.27349
2019-01-12 07:10:00+00:00,244.0,235.0,10.41,12.8,,47.59359,-54.27349
2019-01-12 07:20:00+00:00,237.0,235.0,9.74,11.15,,47.59359,-54.27349
2019-01-12 07:30:00+00:00,241.0,236.0,10.79,12.99,,47.59359,-54.27349
2019-01-12 07:40:00+00:00,235.0,240.0,10.74,12.87,,47.59359,-54.27349
2019-01-12 07:50:00+00:00,242.0,236.0,11.06,12.94,,47.59359,-54.27349
2019-01-12 08:00:00+00:00,238.0,236.0,12.42,14.16,,47.59359,-54.27349
2019-01-12 08:10:00+00:00,246.0,253.0,11.25,14.23,,47.59359,-54.27349
2019-01-12 08:20:00+00:00,244.0,243.0,10.28,12.32,,47.59359,-54.27349
2019-01-12 08:30:00+00:00,240.0,236.0,12.85,15.33,,47.59359,-54.27349
2019-01-12 08:40:00+00:00,243.0,241.0,11.45,13.44,,47.59359,-54.27349
2019-01-12 08:50:00+00:00,248.0,250.0,12.09,13.75,,47.59359,-54.27349
2019-01-12 09:00:00+00:00,255.0,259.0,11.39,13.66,,47.59359,-54.27349
2019-01-12 09:10:00+00:00,247.0,240.0,10.48,11.72,,47.59359,-54.27349
2019-01-12 09:20:00+00:00,248.0,254.0,7.85,9.15,,47.59359,-54.27349
2019-01-12 09:30:00+00:00,243.0,241.0,7.24,8.02,,47.59359,-54.27349
2019-01-12 09:40:00+00:00,231.0,236.0,9.31,10.47,,47.59359,-54.27349
2019-01-12 09:50:00+00:00,234.0,229.0,10.09,11.73,,47.59359,-54.27349
2019-01-12 10:00:00+00:00,242.0,242.0,9.47,10.58,,47.59359,-54.27349
2019-01-12 10:10:00+00:00,236.0,238.0,10.15,11.08,,47.59359,-54.27349
2019-01-12 10:20:00+00:00,225.0,226.0,10.23,11.41,,47.59359,-54.27349
2019-01-12 10:30:00+00:00,229.0,232.0,9.54,10.86,,47.59359,-54.27349
2019-01-12 10:40:00+00:00,222.0,220.0,11.45,12.34,,47.59359,-54.27349
2019-01-12 10:50:00+00:00,230.0,235.0,9.38,11.02,,47.59359,-54.27349
2019-01-12 11:00:00+00:00,226.0,232.0,12.15,13.94,,47.59359,-54.27349
2019-01-12 11:10:00+00:00,224.0,219.0,12.1,14.06,,47.59359,-54.27349
2019-01-12 11:20:00+00:00,222.0,226.0,14.58,16.98,,47.59359,-54.27349
2019-01-12 11:30:00+00:00,232.0,235.0,14.98,17.82,,47.59359,-54.27349
2019-01-12 11:40:00+00:00,254.0,255.0,11.37,12.99,,47.59359,-54.27349
2019-01-12 11:50:00+00:00,254.0,253.0,10.1,11.47,,47.59359,-54.27349
2019-01-12 12:00:00+00:00,260.0,257.0,11.07,12.21,,47.59359,-54.27349
2019-01-12 12:10:00+00:00,251.0,250.0,9.38,10.15,,47.59359,-54.27349
2019-01-12 12:20:00+00:00,262.0,266.0,9.28,10.5,,47.59359,-54.27349
2019-01-12 12:30:00+00:00,260.0,262.0,8.6,9.51,,47.59359,-54.27349
2019-01-12 12:40:00+00:00,258.0,261.0,10.08,11.28,,47.59359,-54.27349
2019-01-12 12:50:00+00:00,253.0,248.0,9.89,10.88,,47.59359,-54.27349
2019-01-12 13:00:00+00:00,254.0,254.0,10.74,12.21,,47.59359,-54.27349
2019-01-12 13:10:00+00:00,260.0,261.0,11.3,13.02,,47.59359,-54.27349
2019-01-12 13:20:00+00:00,261.0,261.0,9.48,10.29,,47.59359,-54.27349
2019-01-12 13:30:00+00:00,261.0,267.0,8.81,10.1,,47.59359,-54.27349
2019-01-12 13:40:00+00:00,250.0,255.0,8.56,10.31,,47.59359,-54.27349
2019-01-12 13:50:00+00:00,250.0,254.0,9.29,11.62,,47.59359,-54.27349
2019-01-12 14:00:00+00:00,244.0,244.0,7.7,9.49,,47.59359,-54.27349
2019-01-12 14:10:00+00:00,245.0,247.0,8.64,9.72,,47.59359,-54.27349
2019-01-12 14:20:00+00:00,248.0,251.0,7.71,8.74,,47.59359,-54.27349
2019-01-12 14:30:00+00:00,247.0,239.0,7.8,9.28,,47.59359,-54.27349
2019-01-12 14:40:00+00:00,252.0,249.0,9.52,10.49,,47.59359,-54.27349
2019-01-12 14:50:00+00:00,249.0,248.0,9.74,11.32,,47.59359,-54.27349
2019-01-12 15:00:00+00:00,248.0,245.0,8.82,9.42,,47.59359,-54.27349
2019-01-12 15:10:00+00:00,248.0,249.0,9.21,10.61,,47.59359,-54.27349
2019-01-12 15:20:00+00:00,246.0,250.0,8.46,10.3,,47.59359,-54.27349
2019-01-12 15:30:00+00:00,255.0,254.0,8.1,9.52,,47.59359,-54.27349
2019-01-12 15:40:00+00:00,246.0,250.0,7.63,9.38,,47.59359,-54.27349
2019-01-12 15:50:00+00:00,241.0,247.0,7.51,8.77,,47.59359,-54.27349
2019-01-12 16:00:00+00:00,256.0,256.0,7.45,8.98,,47.59359,-54.27349
2019-01-12 16:10:00+00:00,250.0,257.0,7.66,8.91,,47.59359,-54.27349
2019-01-12 16:20:00+00:00,228.0,234.0,9.42,11.2,,47.59359,-54.27349
2019-01-12 16:30:00+00:00,240.0,238.0,7.96,9.5,,47.59359,-54.27349
2019-01-12 16:40:00+00:00,236.0,232.0,10.74,11.96,,47.59359,-54.27349
2019-01-12 16:50:00+00:00,236.0,236.0,8.82,10.53,,47.59359,-54.27349
2019-01-12 17:00:00+00:00,235.0,235.0,9.45,10.81,,47.59359,-54.27349
2019-01-12 17:10:00+00:00,235.0,238.0,9.82,10.78,,47.59359,-54.27349
2019-01-12 17:20:00+00:00,236.0,238.0,8.25,9.47,,47.59359,-54.27349
2019-01-12 17:30:00+00:00,235.0,235.0,8.32,9.31,,47.59359,-54.27349
2019-01-12 17:40:00+00:00,234.0,239.0,9.3,10.35,,47.59359,-54.27349
2019-01-12 17:50:00+00:00,226.0,223.0,10.57,11.84,,47.59359,-54.27349
2019-01-12 18:00:00+00:00,243.0,233.0,10.98,13.18,,47.59359,-54.27349
2019-01-12 18:10:00+00:00,236.0,235.0,8.63,9.32,,47.59359,-54.27349
2019-01-12 18:20:00+00:00,232.0,235.0,9.64,11.56,,47.59359,-54.27349
2019-01-12 18:30:00+00:00,233.0,233.0,12.64,15.07,,47.59359,-54.27349
2019-01-12 18:40:00+00:00,241.0,234.0,9.74,11.12,,47.59359,-54.27349
2019-01-12 18:50:00+00:00,252.0,254.0,9.72,11.64,,47.59359,-54.27349
2019-01-12 19:00:00+00:00,243.0,249.0,8.65,10.53,,47.59359,-54.27349
2019-01-12 19:10:00+00:00,237.0,233.0,9.7,11.1,,47.59359,-54.27349
2019-01-12 19:20:00+00:00,248.0,246.0,10.67,13.74,,47.59359,-54.27349
2019-01-12 19:30:00+00:00,236.0,233.0,12.42,14.52,,47.59359,-54.27349
2019-01-12 19:40:00+00:00,242.0,252.0,10.66,13.11,,47.59359,-54.27349
2019-01-12 19:50:00+00:00,244.0,249.0,9.6,11.61,,47.59359,-54.27349
2019-01-12 20:00:00+00:00,257.0,256.0,10.55,11.78,,47.59359,-54.27349
2019-01-12 20:10:00+00:00,247.0,242.0,8.64,10.04,,47.59359,-54.27349
2019-01-12 20:20:00+00:00,246.0,250.0,9.36,11.41,,47.59359,-54.27349
2019-01-12 20:30:00+00:00,254.0,253.0,9.1,10.15,,47.59359,-54.27349
2019-01-12 20:40:00+00:00,243.0,247.0,8.19,9.9,,47.59359,-54.27349
2019-01-12 20:50:00+00:00,242.0,246.0,7.19,8.47,,47.59359,-54.27349
2019-01-12 21:00:00+00:00,241.0,235.0,7.19,8.33,,47.59359,-54.27349
2019-01-12 21:10:00+00:00,237.0,237.0,8.9,10.12,,47.59359,-54.27349
2019-01-12 21:20:00+00:00,243.0,248.0,7.43,8.94,,47.59359,-54.27349
2019-01-12 21:30:00+00:00,242.0,235.0,8.19,9.67,,47.59359,-54.27349
2019-01-12 21:40:00+00:00,254.0,251.0,8.85,10.38,,47.59359,-54.27349
2019-01-12 21:50:00+00:00,259.0,266.0,7.4,8.48,,47.59359,-54.27349
2019-01-12 22:00:00+00:00,255.0,266.0,6.3,6.91,,47.59359,-54.27349
2019-01-12 22:10:00+00:00,266.0,249.0,9.06,12.71,,47.59359,-54.27349
2019-01-12 22:20:00+00:00,251.0,254.0,8.86,10.4,,47.59359,-54.27349
2019-01-12 22:30:00+00:00,264.0,263.0,8.91,9.9,,47.59359,-54.27349
2019-01-12 22:40:00+00:00,267.0,271.0,8.85,9.79,,47.59359,-54.27349
2019-01-12 22:50:00+00:00,273.0,274.0,8.54,9.02,,47.59359,-54.27349
2019-01-12 23:00:00+00:00,263.0,265.0,8.15,9.76,,47.59359,-54.27349
2019-01-12 23:10:00+00:00,268.0,273.0,9.95,10.72,,47.59359,-54.27349
2019-01-12 23:20:00+00:00,267.0,262.0,8.38,9.33,,47.59359,-54.27349
2019-01-12 23:30:00+00:00,271.0,269.0,8.19,10.01,,47.59359,-54.27349
2019-01-12 23:40:00+00:00,262.0,262.0,8.71,9.72,,47.59359,-54.27349
2019-01-12 23:50:00+00:00,260.0,260.0,8.92,10.22,,47.59359,-54.27349
